COSMOS 252 DEB, 19479

Orbit data source: Space-Track

COSMOS 252 DEB, 19479 is space debris in LEO originally from a launch on Fri, 01 Nov 1968 UTC launched from the Tyuratam Missile And Space Complex (TTMTR). Debris objects in space refer to the collection of defunct objects orbiting the Earth. Examples of debris include non-operational satellites, rocket bodies, and fragments generated from explosions, collisions, or faulty payload assembly.

Loading next visibility...
Identifier
19479, 1968-097ET
Orbit
LEO
Country
Flag of CISCIS
Related business
Manufacturer
Unknown
Mission
Spacecraft
Bus & Motor
Unknown
Mass
Unknown
Launch date (UTC)
1968-11-01 (57 years ago)
Launch vehicle
Unknown
Launch site
Tyuratam Missile And Space Complex (TTMTR)
Object type
Payload
Rocket body
Debris
Shape & HBR
Unknown shape, 0.1 m
Radar Cross Section
Small (<0.1 m²)

Expand to show TLE details & history
Last TLE update: 1 day ago

TLE from 1 day ago
0 COSMOS 252 DEB
1 19479U 68097ET  25342.56554292  .00010167  00000-0  18197-2 0  9997
2 19479  62.7925 276.9260 0578819  54.0108 311.3191 13.94633936865769
Epoch: 2025-12-08T13:34Z
TLE epoch observation values (Epoch: 2025-12-08T13:34:22.908Z)
Latitude
-0.00004°
Longitude
-4.23222°
Altitude
650.131 km
Speed
7.668 km/s
True Right ascension
18h 27m 42s
True Declination
0° 00' 00"
Sunlit
Object was in daylight at epoch
Visualization orbit readout
Latitude
Unknown
Longitude
Unknown
Altitude
Unknown
Speed
Unknown
Apparent Right ascension
Unknown
Apparent Declination
Unknown
Sunlit
N/A
Visualization observer readout
Local Sidereal Time
19:09:22
Azimuth
Unknown
Elevation
Unknown
Doppler factor
Unknown
Orbital elements
Apogee altitude
1,333.236 km
Perigee altitude
489.382 km
Semi-major axis
7,289.446 km
Eccentricity
0.05788
Inclination
62.7925°
RAAN
276.926°
Arg. of periapsis
54.0108°
True anomaly
306.0955°
Mean anomaly
311.3191°
Eccentric anomaly
308.73205°
Mean motion
3.4874 °/min
Orbital period
103.23 mins
BSTAR
0.0018197
Loading maneuver chart data...
Computing Atmospheric mass density...

Documentation

Showing up to 5 results
|